N3EYQ Weather Reports


time (UTC)temp
C
wind
direction
speed
KPH
gust
KPH
rain 1hr
cm
rain 24hr
cm
rain mn
cm
humidity
%
barometer
mb
20260506134106 19 0 0.0 0.0 0.00 0.00 0.00 67 1008.3
20260506133107 19 0 0.0 0.0 0.00 0.00 0.00 66 1007.9
20260506132106 19 0 0.0 0.0 0.00 0.00 0.00 66 1007.9
20260506131107 19 0 0.0 0.0 0.00 0.00 0.00 66 1007.9
20260506130106 19 0 0.0 0.0 0.00 0.00 0.00 66 1007.6
20260506125106 19 0 0.0 0.0 0.00 0.00 0.00 65 1007.9
20260506124105 19 0 0.0 0.0 0.00 0.00 0.00 65 1008.3
20260506123106 19 0 0.0 0.0 0.00 0.00 0.00 65 1007.9
20260506122105 18 0 0.0 0.0 0.00 0.00 0.00 65 1008.3
20260506121105 18 0 0.0 0.0 0.00 0.00 0.00 65 1008.3
20260506120106 18 0 0.0 0.0 0.00 0.00 0.00 66 1008.3
20260506115106 18 0 0.0 0.0 0.00 0.00 0.00 65 1008.3
20260506114105 18 0 0.0 0.0 0.00 0.00 0.00 67 1008.3
20260506113105 18 0 0.0 0.0 0.00 0.00 0.00 66 1008.3
20260506112104 18 0 0.0 0.0 0.00 0.00 0.00 66 1008.3
20260506111105 17 0 0.0 0.0 0.00 0.00 0.00 66 1007.9
20260506110104 17 0 0.0 0.0 0.00 0.00 0.00 66 1007.9
20260506105105 17 0 0.0 0.0 0.00 0.00 0.00 66 1007.9
20260506104104 17 0 0.0 0.0 0.00 0.00 0.00 66 1008.3
20260506103104 17 0 0.0 0.0 0.00 0.00 0.00 66 1007.9
20260506102104 17 0 0.0 0.0 0.00 0.00 0.00 66 1007.6
20260506101104 17 0 0.0 0.0 0.00 0.00 0.00 66 1007.6
20260506100103 17 0 0.0 0.0 0.00 0.00 0.00 65 1007.6
20260506095103 17 0 0.0 0.0 0.00 0.00 0.00 66 1007.6
20260506094103 17 0 0.0 0.0 0.00 0.00 0.00 65 1007.9
20260506093103 17 0 0.0 0.0 0.00 0.00 0.00 65 1007.9
20260506092103 16 0 0.0 0.0 0.00 0.00 0.00 65 1007.6
20260506091103 16 0 0.0 0.0 0.00 0.00 0.00 66 1007.6
20260506085102 16 0 0.0 0.0 0.00 0.00 0.00 67 1007.9
20260506084102 15 0 0.0 0.0 0.00 0.00 0.00 67 1007.9
20260506083102 16 0 0.0 0.0 0.00 0.00 0.00 65 1008.3
20260506082103 16 0 0.0 0.0 0.00 0.00 0.00 63 1008.3
20260506081102 16 0 0.0 0.0 0.00 0.00 0.00 62 1008.3
20260506073101 17 0 0.0 0.0 0.00 0.00 0.00 58 1007.9
20260506072101 18 0 0.0 0.0 0.00 0.00 0.00 56 1008.3
20260506071101 18 0 0.0 0.0 0.00 0.00 0.00 54 1008.3
20260506062100 21 0 0.0 0.0 0.00 0.00 0.00 50 1008.6
20260506061100 20 0 0.0 0.0 0.00 0.00 0.00 49 1008.6
20260506051100 21 0 0.0 0.0 0.00 0.00 0.00 48 1008.6
20260506045100 20 0 0.0 0.0 0.00 0.00 0.00 49 1008.6
20260506044059 21 0 0.0 0.0 0.00 0.00 0.00 48 1008.6
20260506043059 21 0 0.0 0.0 0.00 0.00 0.00 46 1008.6
20260506042059 22 0 0.0 0.0 0.00 0.00 0.00 45 1008.6
20260506041059 22 0 0.0 0.0 0.00 0.00 0.00 44 1008.3
20260506040059 22 0 0.0 0.0 0.00 0.00 0.00 44 1008.6
20260506035058 22 0 0.0 0.0 0.00 0.00 0.00 44 1008.3
20260506034058 22 0 0.0 0.0 0.00 0.00 0.00 44 1008.3
20260506033059 22 0 0.0 0.0 0.00 0.00 0.00 44 1008.3
20260506032058 21 0 0.0 0.0 0.00 0.00 0.00 47 1008.3
20260506031058 20 0 0.0 0.0 0.00 0.00 0.00 49 1008.3
20260506030058 20 0 0.0 0.0 0.00 0.00 0.00 50 1008.3
20260506025059 20 0 0.0 0.0 0.00 0.00 0.00 49 1008.3
20260506024057 20 0 0.0 0.0 0.00 0.00 0.00 48 1008.3
20260506023058 21 0 0.0 0.0 0.00 0.00 0.00 47 1008.3
20260506022057 21 0 0.0 0.0 0.00 0.00 0.00 47 1008.3
20260506021058 21 0 0.0 0.0 0.00 0.00 0.00 47 1008.3
20260506020057 22 0 0.0 0.0 0.00 0.00 0.00 45 1008.3
20260506015057 22 0 0.0 0.0 0.00 0.00 0.00 43 1007.9
20260506014056 22 0 0.0 0.0 0.00 0.00 0.00 42 1007.9
20260506013056 22 0 0.0 0.0 0.00 0.00 0.00 41 1007.9
20260506012057 23 0 0.0 0.0 0.00 0.00 0.00 39 1007.9
20260506011056 24 0 0.0 0.0 0.00 0.00 0.00 38 1007.6
20260506010056 24 0 0.0 0.0 0.00 0.00 0.00 37 1007.6
20260506005056 25 0 0.0 0.0 0.00 0.00 0.00 35 1007.6
20260506004056 25 0 0.0 0.0 0.00 0.00 0.00 35 1007.2
20260506003056 25 0 0.0 0.0 0.00 0.00 0.00 35 1007.2
20260506002056 25 0 0.0 0.0 0.00 0.00 0.00 34 1006.9
20260506001055 25 0 0.0 0.0 0.00 0.00 0.00 34 1006.9
20260506000056 25 0 0.0 0.0 0.00 0.00 0.00 34 1006.6
20260505235056 25 0 0.0 0.0 0.00 0.00 0.00 34 1006.6
20260505234056 25 0 0.0 0.0 0.00 0.00 0.00 33 1006.6
20260505233055 26 0 0.0 0.0 0.00 0.00 0.00 33 1006.6
20260505232055 26 0 0.0 0.0 0.00 0.00 0.00 33 1006.2
20260505231055 26 0 0.0 0.0 0.00 0.00 0.00 32 1006.2
20260505230054 26 0 0.0 0.0 0.00 0.00 0.00 32 1006.2
20260505225054 26 0 0.0 0.0 0.00 0.00 0.00 31 1005.9
20260505224054 26 0 0.0 0.0 0.00 0.00 0.00 31 1005.9
20260505223054 26 0 0.0 0.0 0.00 0.00 0.00 31 1005.6
20260505222054 26 0 0.0 0.0 0.00 0.00 0.00 30 1005.6
20260505221054 27 0 0.0 0.0 0.00 0.00 0.00 30 1005.6
20260505220054 27 0 0.0 0.0 0.00 0.00 0.00 30 1005.6
20260505215054 27 0 0.0 0.0 0.00 0.00 0.00 30 1005.2
20260505214054 27 0 0.0 0.0 0.00 0.00 0.00 29 1005.2
20260505213053 27 0 0.0 0.0 0.00 0.00 0.00 29 1004.9
20260505212053 27 0 0.0 0.0 0.00 0.00 0.00 29 1004.9
20260505211053 27 0 0.0 0.0 0.00 0.00 0.00 28 1004.9
20260505210053 28 0 0.0 0.0 0.00 0.00 0.00 28 1004.9
20260505205053 28 0 0.0 0.0 0.00 0.00 0.00 28 1004.9
20260505204053 28 0 0.0 0.0 0.00 0.00 0.00 29 1004.9
20260505203053 28 0 0.0 0.0 0.00 0.00 0.00 29 1004.9
20260505202052 28 0 0.0 0.0 0.00 0.00 0.00 29 1004.9
20260505201053 28 0 0.0 0.0 0.00 0.00 0.00 29 1004.9
20260505200052 28 0 0.0 0.0 0.00 0.00 0.00 29 1005.2
20260505195052 28 0 0.0 0.0 0.00 0.00 0.00 29 1005.2
20260505194052 28 0 0.0 0.0 0.00 0.00 0.00 30 1005.2
20260505193052 28 0 0.0 0.0 0.00 0.00 0.00 30 1005.6
20260505192052 27 0 0.0 0.0 0.00 0.00 0.00 30 1005.6
20260505191051 28 0 0.0 0.0 0.00 0.00 0.00 31 1005.6
20260505190051 28 0 0.0 0.0 0.00 0.00 0.00 32 1005.6
20260505185052 28 0 0.0 0.0 0.00 0.00 0.00 32 1005.9
20260505184052 27 0 0.0 0.0 0.00 0.00 0.00 33 1005.6
20260505183051 28 0 0.0 0.0 0.00 0.00 0.00 32 1006.2
20260505182051 28 0 0.0 0.0 0.00 0.00 0.00 30 1006.2
20260505181051 27 0 0.0 0.0 0.00 0.00 0.00 33 1006.2
20260505180051 27 0 0.0 0.0 0.00 0.00 0.00 35 1006.2
20260505175050 27 0 0.0 0.0 0.00 0.00 0.00 37 1006.2
20260505174050 27 0 0.0 0.0 0.00 0.00 0.00 37 1006.6
20260505173050 27 0 0.0 0.0 0.00 0.00 0.00 37 1006.6
20260505172050 27 0 0.0 0.0 0.00 0.00 0.00 37 1006.6
20260505171050 27 0 0.0 0.0 0.00 0.00 0.00 39 1006.6
20260505170050 27 0 0.0 0.0 0.00 0.00 0.00 39 1006.9
20260505165049 27 0 0.0 0.0 0.00 0.00 0.00 39 1006.9
20260505164050 26 0 0.0 0.0 0.00 0.00 0.00 40 1007.2
20260505163049 26 0 0.0 0.0 0.00 0.00 0.00 41 1007.6
20260505162050 26 0 0.0 0.0 0.00 0.00 0.00 41 1007.6
20260505161049 26 0 0.0 0.0 0.00 0.00 0.00 43 1007.9
20260505153048 25 0 0.0 0.0 0.00 0.00 0.00 44 1008.3
20260505152048 25 0 0.0 0.0 0.00 0.00 0.00 45 1008.3
20260505151048 24 0 0.0 0.0 0.00 0.00 0.00 46 1008.3